Location: Ash Swamp
(41.5170°N, 74.6157°W)
Time: 02:46:49
(UTC+00:00)

Cosmos 1943 Rocket - Pass Details

Date: 14 July 2020
Orbit: 811 x 845 km, 71.0° (Epoch: 14 August)

Event Time Altitude Azimuth Distance (km) Brightness Sun altitude
Rises 04:52:54 0° 322° (NW) 3,408 6.2 -26.8°
Reaches altitude 10° 04:55:52 10° 308° (NW) 2,465 5.1 -26.8°
Enters shadow 04:59:54 22° 262° (W) 1,768 3.8 -26.9°
